Regional Weather Roundup
Issued by NWS

Home | Current Version | Previous Version | Graphics & Text | Print | Product List | Glossary On
Versions: 1 2 3 4 5 6 7 8 9 10 11 12 13 14 15 16 17 18 19 20 21 22 23 24 25 26 27 28 29 30 31 32 33 34 35 36 37 38 39 40 41 42 43 44 45 46 47 48 49 50
000
ASUS43 KFSD 272110
RWRSD

WEATHER ROUNDUP FOR SOUTH DAKOTA
NATIONAL WEATHER SERVICE SIOUX FALLS SD
300 PM CST FRI FEB 27 2015

NOTE: "FAIR" INDICATES FEW OR NO CLOUDS BELOW 12,000 FEET WITH NO
SIGNIFICANT WEATHER AND/OR OBSTRUCTIONS TO VISIBILITY.


SDZ001>005-009-010-012>017-272200-
NORTHWEST AND NORTH CENTRAL SOUTH DAKOTA

CITY           SKY/WX    TMP DP  RH WIND       PRES   REMARKS
BUFFALO          N/A     26  11  52 SE17G25   29.94F WCI  13
FAITH            N/A     26   0  32 S24G30    30.12F WCI  11
MOBRIDGE       SUNNY     20   5  52 SE17      30.25F WCI   5
$$

SDZ012>016-024>037-041>051-057-063-072>074-272200-
SOUTHWEST AND SOUTH CENTRAL SOUTH DAKOTA

CITY           SKY/WX    TMP DP  RH WIND       PRES   REMARKS
RAPID CTY ARPT CLOUDY    22  12  65 S21G30    30.04F WCI   6
PIERRE         SUNNY     26  -5  25 S16       30.27F WCI  14
CUSTER         LGT SNOW  11   4  73 S9        29.88F WCI  -2
ELLSWORTH AFB  CLOUDY    23  11  61 S21       30.01F WCI   8
PHILIP         SUNNY     29   3  33 S12G22    30.17F WCI  19
PINE RIDGE     CLOUDY    25   7  46 S20G31    30.08F WCI  11
WINNER         FAIR      26  -5  25 S17       30.28F WCI  13
$$

SDZ004>011-016>023-039-040-272200-
NORTHEAST SOUTH DAKOTA

CITY           SKY/WX    TMP DP  RH WIND       PRES   REMARKS
ABERDEEN       SUNNY     15   2  56 S9        30.40F WCI   3
WATERTOWN      SUNNY     11   0  61 S8        30.39F WCI  -1
SISSETON         N/A     15   0  51 W6        30.43F WCI   6
$$

SDZ017-020-022-023-036>040-048>070-272200-
SOUTHEAST SOUTH DAKOTA

CITY           SKY/WX    TMP DP  RH WIND       PRES   REMARKS
SIOUX FALLS    SUNNY     13  -1  54 SW8       30.45F WCI   2
HURON          SUNNY     17   3  54 SE12      30.41F WCI   4
CHAMBERLAIN    SUNNY     24  -2  31 S9        30.33F WCI  15
MITCHELL       SUNNY     23  -2  33 SE10      30.42F WCI  12
YANKTON        SUNNY     19   1  45 SE10      30.46F WCI   8
$$

ABBREVIATIONS USED IN REMARKS
   TC - TEMPERATURE IN CELSIUS
  WCI - WIND CHILL INDEX
   HX - HEAT INDEX
  VSB - VISIBILITY




USA.gov is the U.S. government's official web portal to all federal, state and local government web resources and services.